Location: Lubbock
(33.5779°N, 101.8552°W)
Time: 14:44:43
(UTC-05:00)

Envisat - Visible Passes

Search period start: 28 September 2020 00:00
Search period end: 08 October 2020 00:00
Orbit: 764 x 766 km, 98.1° (Epoch: 28 September)

Date Brightness Start Highest point End Pass type
(mag) Time Alt. Az. Time Alt. Az. Time Alt. Az.
28 Sep 6.0 06:44:35 10° NE 06:48:01 18° E 06:51:27 10° SE visible
30 Sep 5.1 07:09:02 10° NNE 07:13:36 33° E 07:18:09 10° SSE visible
30 Sep 5.6 19:58:52 10° SSW 20:03:03 26° W 20:07:15 10° NW visible
01 Oct 6.3 06:34:01 10° ENE 06:36:34 14° E 06:39:06 10° ESE visible
02 Oct 6.3 20:26:10 10° WSW 20:28:40 14° W 20:31:11 10° WNW visible
03 Oct 5.5 06:57:59 10° NE 07:02:11 26° E 07:06:22 10° SSE visible
03 Oct 5.1 19:47:05 10° SSW 19:51:38 33° W 19:56:12 10° NNW visible
04 Oct 6.7 06:24:44 10° E 06:25:05 10° E 06:25:27 10° E visible
05 Oct 6.1 20:13:49 10° SW 20:17:13 18° W 20:20:38 10° NW visible
06 Oct 6.0 06:47:04 10° NE 06:50:45 20° E 06:54:25 10° SE visible
